Skip Page Navigation
NASA JPL Caltech
NASA Logo - Jet Propulsion Laboratory + View the NASA Portal
+ Center for Near-Earth Object Studies
JPL Home Earth Solar System Stars & Galaxies Technology
JPL Solar System Dynamics
BODIES ORBITS EPHEMERIDES TOOLS PHYSICAL DATA DISCOVERY FAQ SITE MAP
JPL Small-Body Database Browser
Search: [ help ]  
186191 (2001 VX86)
Classification: Main-belt Asteroid          SPK-ID: 2186191
Ephemeris | Orbit Diagram | Orbital Elements | Mission Design | Physical Parameters | Discovery Circumstances ]

[ show orbit diagram ]
Orbital Elements at Epoch 2459200.5 (2020-Dec-17.0) TDB
Reference: JPL 22 (heliocentric ecliptic J2000)
 Element Value Uncertainty (1-sigma)   Units 
e .116914352397703 3.2891e-08  
a 2.732821956604846 1.4365e-08 au
q 2.413315847330166 9.0775e-08 au
i 12.24449101579653 3.9105e-06 deg
node 122.5818707988641 2.0308e-05 deg
peri 327.2835214766243 2.9173e-05 deg
M 54.3166867825812 2.0029e-05 deg
tp 2458951.530467104582
(2020-Apr-12.03046710)
9.1542e-05 TDB
period 1650.11964373154
4.52
1.3011e-05
3.562e-08
d
yr
n .2181659986701964 1.7202e-09 deg/d
Q 3.052328065879525 1.6045e-08 au
  Orbit Determination Parameters
   # obs. used (total)      481  
   data-arc span      7599 days (20.80 yr)  
   first obs. used      2000-06-29  
   last obs. used      2021-04-19  
   planetary ephem.      DE441  
   SB-pert. ephem.      SB441-N16  
   condition code      0  
   norm. resid. RMS      .51516  
   source      ORB  
   producer      Otto Matic  
   solution date      2021-May-04 10:13:51  

Additional Information
 Earth MOID = 1.43883 au 
 Jupiter MOID = 2.11844 au 
 T_jup = 3.311 
[ show covariance matrix ]

Ephemeris | Orbit Diagram | Orbital Elements | Mission Design | Physical Parameters | Discovery Circumstances ]

Physical Parameter Table
Parameter Symbol Value Units Sigma Reference Notes
absolute magnitude H 15.93   n/a MPCxxxxx  

186191 (2001 VX86)          Discovered 2001-Nov-15 by LINEAR at Socorro
Reference: 20080520/Numbers.arcLast Updated: 2008-05-22
Ephemeris | Orbit Diagram | Orbital Elements | Mission Design | Physical Parameters | Discovery Circumstances ]
ABOUT SSD CREDITS/AWARDS PRIVACY/COPYRIGHT GLOSSARY LINKS
FirstGov 2021-Jun-13 12:19 UT
(server date/time)  
NASA Home Page
Site Manager:   Ryan S. Park
Webmaster  Alan B. Chamberlin